GFSGL_850_thetae_000.txt.gz
Theta_e
338 340 339 333 335 336 335 334 335 335 335 333 332 332 330 331 331 333 332 331 331 332 330 329 328 325 321 319 320 321 322 324 330 334 330 332 335 332 334 334 339 339 346
340 339 337 334 331 335 335 335 335 334 333 332 331 331 332 332 332 332 331 331 331 329 329 328 327 326 322 319 319 319 320 322 328 336 332 332 334 333 332 333 338 338 341
339 338 334 335 335 333 335 335 334 334 331 333 334 332 331 331 330 330 330 330 330 328 329 329 328 323 321 318 318 318 319 322 323 328 333 333 334 333 333 336 340 338 337
338 339 337 336 336 334 336 337 335 334 334 333 331 330 329 332 331 331 331 333 329 328 329 328 327 326 321 320 319 318 316 320 322 324 327 334 336 334 334 334 339 341 340
336 336 335 336 337 335 336 335 333 333 334 333 330 331 332 332 332 330 330 327 324 320 321 326 327 327 325 323 321 319 319 317 319 321 324 326 332 335 337 334 335 339 340
336 336 336 337 337 337 337 336 335 335 333 332 331 332 331 329 330 328 326 325 323 321 319 323 325 325 325 324 319 316 319 318 319 321 323 326 327 331 336 336 335 337 342
335 332 334 336 335 336 336 335 335 334 331 329 330 332 327 328 330 328 326 324 324 319 320 323 324 325 321 319 318 318 318 317 320 322 323 324 325 329 332 337 335 335 339
336 330 331 333 336 337 337 335 335 334 331 329 331 327 326 327 328 327 325 324 324 322 326 326 325 324 321 320 319 319 318 319 321 322 322 323 324 326 331 336 337 334 340
335 331 331 332 336 337 337 336 335 334 329 329 329 326 329 327 327 327 326 325 324 324 326 326 324 323 321 322 321 321 318 319 321 322 322 322 324 325 330 333 335 336 338
334 332 332 335 338 337 337 336 336 333 332 324 331 331 329 329 327 324 324 321 321 323 325 325 323 323 322 320 321 320 320 320 320 321 321 330 333 329 327 332 334 339 335
333 335 337 337 337 336 336 335 335 332 328 330 329 326 328 325 325 324 324 324 322 324 322 321 323 322 321 320 321 320 320 318 320 319 320 325 333 333 329 330 334 336 337
335 336 337 337 337 336 335 333 330 326 331 331 329 328 324 326 323 323 323 324 324 322 321 323 323 322 321 322 320 321 318 318 320 320 320 320 329 334 334 332 334 336 336
340 339 337 337 336 335 334 331 329 329 329 329 328 327 327 326 325 324 325 323 319 319 322 322 322 323 324 321 320 321 320 318 319 320 321 321 321 330 337 337 337 336 336
338 342 340 338 336 337 331 330 332 331 331 328 327 325 324 323 324 323 319 318 319 320 321 322 324 322 321 319 322 321 321 316 317 320 321 319 320 324 335 339 339 337 337
345 344 340 338 336 331 332 333 331 328 326 326 324 320 322 322 321 318 317 317 319 320 320 322 321 319 318 317 319 321 321 319 318 318 319 320 318 321 323 331 333 339 339
338 337 335 334 331 328 329 328 326 326 326 323 320 320 320 319 318 317 316 314 318 319 320 319 318 317 315 313 317 318 318 319 319 317 319 320 318 318 320 322 322 326 328
332 330 329 328 327 326 328 328 328 326 325 323 321 320 318 316 315 315 315 312 317 317 317 317 316 313 312 313 314 315 316 316 317 320 319 320 321 321 318 321 320 321 322
330 328 326 326 328 329 328 327 326 324 324 322 320 318 317 316 316 312 311 317 316 314 314 313 312 311 312 312 313 313 315 315 315 316 318 319 319 320 321 320 322 320 320
328 327 328 329 328 327 325 323 322 320 319 318 317 316 315 314 313 311 312 314 312 312 312 313 311 311 311 310 310 311 310 311 313 313 313 316 319 320 321 320 318 321 321
325 320 324 326 325 324 323 321 319 318 317 316 314 314 314 313 312 309 310 311 311 311 311 310 309 308 308 308 307 306 307 308 308 309 309 312 315 317 319 319 320 319 318
325 324 320 325 324 322 320 315 316 317 316 315 313 312 309 309 308 309 308 308 308 307 306 306 305 303 303 304 305 304 303 304 304 304 304 306 311 313 313 317 318 318 320
323 324 322 322 321 320 319 319 317 316 315 313 311 309 307 306 305 307 307 307 307 306 305 303 303 301 300 299 298 298 299 300 301 301 300 301 304 305 309 311 312 314 316
323 322 320 320 318 317 316 315 315 315 314 313 311 310 308 306 306 304 305 306 305 303 301 300 299 298 297 295 294 292 293 295 298 299 298 298 300 300 303 303 304 309 312
317 316 316 316 315 315 314 314 314 313 312 310 309 308 307 307 306 304 304 304 302 300 298 297 297 294 292 292 292 292 293 293 295 297 298 299 299 299 299 299 299 300 303
315 315 315 314 314 313 312 311 312 311 309 307 307 306 305 304 304 303 301 300 298 298 296 296 296 295 293 292 292 293 293 294 294 296 297 297 297 298 299 299 299 300 300
313 312 312 311 311 310 309 309 308 309 308 307 306 304 304 302 301 300 299 298 298 297 296 296 295 295 294 294 293 293 293 293 293 294 295 295 295 295 296 298 298 299 299

GFSGL_850_thetae_003.txt.gz
Theta_e
326 333 337 339 333 325 323 321 323 328 331 332 331 327 324 325 329 332 333 331 331 331 330 329 327 325 324 321 319 318 318 316 317 318 322 324 328 334 331 333 335 335 337
328 335 338 338 330 331 333 327 329 330 328 326 325 329 330 331 329 330 329 330 331 329 327 327 326 327 326 323 319 319 319 319 317 318 317 321 323 331 331 332 333 334 333
331 335 337 337 328 327 327 325 327 327 326 328 330 331 329 327 328 330 330 329 329 329 328 325 325 328 327 326 322 322 320 317 317 318 318 319 322 325 331 334 333 334 333
336 335 335 334 330 328 324 323 324 324 325 329 332 330 328 330 330 331 333 331 330 326 323 321 321 322 325 325 325 324 320 317 318 319 318 320 321 322 326 330 334 335 332
338 337 336 335 334 332 327 324 324 327 329 333 332 330 328 330 331 329 331 329 326 324 322 322 321 320 324 323 324 322 319 318 318 319 320 321 321 323 324 325 330 337 334
337 337 336 335 334 329 328 324 326 330 333 334 331 329 330 330 330 327 329 328 326 324 324 321 322 323 325 325 325 320 319 319 320 319 319 320 321 322 324 325 327 332 338
337 336 337 337 334 330 327 327 330 334 335 332 327 327 328 329 328 326 327 325 325 324 324 322 323 323 323 324 322 319 320 320 320 320 319 320 321 321 321 323 324 328 334
337 336 334 332 331 326 329 332 335 335 334 329 325 326 326 327 329 327 327 325 324 323 323 322 323 324 322 322 322 321 321 320 318 317 319 320 321 321 320 321 324 327 332
336 334 330 327 326 327 330 335 336 337 335 334 331 328 325 330 329 328 327 324 323 321 320 322 325 324 322 322 322 320 320 320 318 318 319 320 321 321 324 323 324 327 331
336 331 328 329 327 331 336 338 338 337 336 335 331 329 328 329 328 328 324 323 323 323 323 323 322 322 322 323 321 321 319 319 318 318 317 319 321 320 332 330 324 328 335
339 329 331 332 332 334 337 339 338 337 335 331 328 329 328 327 328 326 325 323 321 320 323 322 321 323 323 322 322 321 319 319 316 318 317 318 319 319 323 329 328 326 333
332 333 335 336 337 338 338 336 337 335 332 327 327 327 327 326 327 326 325 324 324 322 321 320 321 323 322 322 322 319 321 320 318 317 317 318 319 319 324 331 332 328 331
344 341 341 341 340 338 337 335 334 330 329 327 329 327 327 327 326 324 323 324 321 318 319 321 322 322 322 321 317 320 321 321 319 318 319 317 317 319 319 333 334 332 328
330 334 328 336 338 336 335 334 333 329 322 320 327 327 325 324 323 324 322 318 317 319 320 321 322 322 320 319 317 318 319 320 319 318 319 317 317 319 319 321 333 339 337
323 324 325 324 332 334 332 330 329 327 324 326 326 325 322 321 321 320 318 317 314 318 320 321 320 318 318 319 316 317 317 318 320 319 319 319 320 317 319 320 321 329 335
327 330 333 334 334 331 329 328 327 326 326 326 324 322 321 320 319 319 317 316 315 317 318 318 317 317 315 315 315 316 316 316 316 318 318 319 320 317 318 319 320 320 322
331 332 333 331 329 327 327 327 327 326 326 325 322 320 319 318 317 317 315 313 316 315 316 315 314 313 314 314 313 313 314 313 313 315 317 318 320 319 317 317 319 320 321
323 325 327 328 325 327 328 328 326 322 322 321 320 319 318 317 316 315 313 316 315 314 314 313 314 313 312 312 310 310 311 311 311 312 312 316 317 320 319 317 318 320 321
325 328 327 327 329 327 326 325 323 323 322 319 317 317 316 314 314 314 310 311 312 311 312 311 310 309 308 307 307 307 306 307 307 308 308 311 315 316 318 319 319 318 320
328 326 329 329 327 326 324 323 320 319 317 316 316 315 314 314 313 312 310 312 311 310 309 308 307 306 305 304 305 305 305 305 305 304 305 307 309 311 314 316 318 320 321
326 326 323 321 324 324 323 322 316 317 317 317 316 314 311 308 309 309 309 309 308 307 306 305 304 303 303 303 299 299 301 302 302 301 301 302 302 306 306 310 314 317 319
325 324 323 323 323 322 320 318 318 318 317 316 314 313 310 307 306 305 308 307 306 305 304 303 302 302 301 297 294 294 296 299 300 299 300 300 299 300 300 303 308 314 317
323 323 323 322 321 321 320 319 317 317 317 315 313 312 309 307 306 304 306 305 305 303 303 300 298 297 295 292 292 293 295 297 298 297 298 298 298 299 299 299 301 304 311
321 321 319 318 319 318 317 316 315 316 316 313 311 310 307 307 306 304 303 303 303 302 299 297 296 295 292 292 292 293 294 295 296 297 297 297 298 298 299 299 300 301 301
316 316 315 315 315 314 314 313 312 313 313 311 310 308 307 306 304 303 301 301 299 297 296 296 296 295 294 292 293 293 293 293 294 295 295 296 296 297 297 299 299 299 300
313 313 313 312 312 311 312 311 311 310 310 309 308 307 305 304 303 302 300 299 297 297 296 296 295 295 295 294 292 292 292 292 293 294 295 294 294 295 296 297 298 298 299

GFSGL_850_thetae_006.txt.gz
Theta_e
345 326 325 331 329 325 325 320 320 322 324 324 327 326 323 322 327 328 327 327 330 331 330 328 328 326 325 326 325 323 319 320 320 318 318 318 319 319 320 323 328 331 331
349 329 325 331 329 327 325 322 320 320 322 321 323 323 325 325 326 325 326 328 329 328 327 327 328 326 321 323 326 326 323 323 320 317 316 318 320 320 320 322 323 329 332
350 333 326 332 329 326 322 321 319 319 320 322 325 325 326 326 327 328 329 331 333 330 329 327 323 321 321 322 324 325 325 325 321 319 319 319 319 319 319 320 322 323 329
349 341 330 330 329 327 322 321 320 320 321 325 328 329 329 327 328 329 330 330 330 328 325 323 322 323 323 322 323 323 322 323 320 319 319 319 319 319 319 319 320 321 325
348 345 335 330 333 330 325 323 322 321 323 327 330 330 331 328 328 331 330 329 329 326 324 324 323 322 322 323 324 325 324 324 320 320 320 319 319 318 320 319 322 320 321
348 346 336 331 335 333 326 323 323 322 325 331 331 329 329 326 327 331 331 329 327 324 324 324 324 323 322 323 324 324 323 323 321 321 319 318 319 319 319 320 320 320 321
349 346 339 335 334 334 328 322 322 323 326 331 331 330 329 327 329 329 330 328 327 325 323 324 324 322 322 323 322 322 322 321 321 320 318 318 318 317 318 319 320 320 319
348 343 338 336 333 335 330 322 323 326 328 332 333 330 329 327 326 327 327 328 326 323 322 321 322 321 323 323 322 322 322 321 320 319 317 318 317 317 318 319 320 320 321
347 340 337 336 335 335 330 322 324 330 333 335 331 333 333 331 329 327 327 327 326 322 322 323 323 323 322 321 322 322 321 321 320 319 316 316 317 317 318 320 320 320 321
346 342 338 335 335 334 324 324 330 335 334 334 334 334 328 329 329 328 326 326 325 324 323 321 323 321 320 322 322 322 322 321 319 320 319 318 317 317 319 319 320 322 323
346 340 336 336 335 332 330 331 336 335 335 334 334 326 323 325 327 326 325 326 325 324 323 323 320 319 320 322 322 322 319 318 320 320 320 318 317 318 319 318 320 323 324
338 337 337 337 337 339 336 338 335 334 334 334 330 324 323 326 326 326 326 325 323 323 321 319 318 320 321 320 321 320 317 317 319 321 319 318 317 317 319 319 321 328 327
339 338 333 334 330 332 334 333 332 334 333 331 325 323 326 328 327 326 324 323 323 317 317 318 319 320 321 320 320 319 317 317 319 320 319 318 317 318 319 320 320 328 330
339 334 332 328 325 326 328 333 333 333 332 328 326 323 325 326 325 323 322 322 318 316 316 317 320 320 320 320 318 316 316 317 317 318 318 319 317 318 318 320 320 323 331
333 325 325 325 324 324 327 334 332 330 329 326 324 325 325 323 321 320 320 318 316 314 315 318 320 319 317 316 315 316 316 316 316 318 318 318 318 318 317 320 320 320 321
325 322 321 322 325 327 330 329 328 327 326 325 325 324 322 321 320 319 318 316 315 314 316 318 317 316 314 314 315 314 314 314 315 316 318 318 319 319 317 318 319 320 320
326 324 322 328 327 330 328 328 326 326 325 324 324 323 320 319 317 316 316 313 313 315 315 315 314 314 313 313 311 310 309 310 312 314 315 316 318 318 317 318 318 320 319
326 333 334 331 330 329 328 327 326 325 323 321 321 319 318 318 316 314 313 314 315 315 314 312 313 311 311 309 308 307 306 306 306 307 311 312 314 316 319 318 317 320 319
327 326 326 326 326 326 326 325 324 324 322 322 319 317 316 316 315 314 313 310 313 312 312 311 310 310 309 308 307 305 304 304 304 304 306 308 311 313 315 318 318 318 321
321 323 326 327 327 327 326 325 324 323 320 318 316 315 315 314 312 312 311 310 311 310 309 308 308 307 306 304 302 299 300 302 302 302 302 303 305 305 309 314 318 319 318
322 325 325 323 322 321 324 323 322 319 316 316 316 315 313 309 307 307 309 308 308 307 307 306 305 304 304 302 296 294 297 300 300 300 300 300 300 301 304 309 316 318 319
326 326 325 323 323 322 322 322 319 317 317 317 316 314 312 309 306 305 307 307 306 305 305 304 302 299 299 295 293 295 297 299 297 298 299 298 299 299 301 303 311 316 317
325 323 324 323 322 321 320 320 319 318 317 317 316 313 311 309 307 305 306 306 305 304 303 302 298 295 294 292 293 294 296 296 296 296 297 298 298 299 299 300 302 307 312
321 323 322 321 319 318 320 319 318 316 316 317 315 312 310 308 306 305 304 304 303 302 302 297 296 295 292 292 293 294 295 295 295 296 296 296 297 298 298 299 300 300 301
318 317 316 314 314 315 314 314 314 312 314 315 313 311 309 307 305 304 303 302 301 299 297 296 295 295 294 293 293 293 293 293 294 294 295 294 295 296 297 298 298 299 299
313 314 314 314 313 312 312 312 312 312 312 310 310 309 307 306 305 303 302 301 300 298 297 296 296 295 295 294 294 293 292 292 293 294 294 294 294 294 296 297 297 297 298

GFSGL_850_thetae_009.txt.gz
Theta_e
336 337 334 334 325 326 319 319 320 321 320 322 324 326 324 322 322 326 328 328 328 329 330 331 329 326 327 327 323 323 325 325 322 322 323 321 316 318 318 318 318 318 320
344 341 341 339 325 329 324 320 319 319 321 323 323 323 322 325 326 326 325 326 326 327 327 329 328 327 327 326 322 322 324 325 326 325 324 322 317 317 318 318 318 318 318
347 345 347 344 326 329 328 323 322 319 319 320 320 321 322 324 325 326 326 328 329 330 326 327 325 325 322 322 322 325 325 324 325 325 323 320 318 318 318 318 318 318 317
347 348 349 348 335 327 330 326 322 320 319 320 322 324 324 327 327 327 328 329 328 327 328 326 324 323 322 323 321 321 323 324 324 324 323 321 319 319 318 318 318 317 317
346 348 349 349 339 328 332 327 322 321 320 321 323 325 327 329 329 328 329 329 329 327 326 324 324 324 324 324 322 322 323 323 324 324 324 321 320 319 318 317 317 317 317
347 347 351 347 334 332 332 328 323 322 321 321 324 327 329 331 329 327 328 330 327 327 326 326 323 322 323 324 322 322 323 323 323 322 322 322 320 319 317 317 317 316 317
347 350 350 347 340 334 332 335 327 320 322 322 324 330 331 333 329 329 329 328 326 328 327 325 322 321 321 321 321 323 323 322 322 322 321 320 319 317 316 317 317 317 318
348 350 351 345 340 337 336 336 332 322 321 325 326 331 331 331 331 326 329 327 326 327 327 324 322 322 321 322 323 322 321 322 322 321 321 320 319 317 319 318 317 317 318
348 349 350 346 341 338 335 333 334 330 325 329 329 332 331 331 331 327 329 328 327 326 326 324 323 322 321 322 321 321 321 321 321 319 318 319 319 319 319 316 317 318 318
350 349 349 346 343 337 335 334 335 335 331 332 333 332 333 330 328 327 328 328 326 325 326 324 324 322 322 319 321 321 321 321 319 318 317 318 320 319 317 316 318 317 317
349 348 348 345 340 339 339 338 337 336 332 334 333 332 331 330 327 323 327 326 325 326 325 322 322 321 318 320 321 319 320 320 319 316 317 319 319 317 316 317 318 318 317
347 346 345 340 339 339 339 338 330 329 334 332 331 330 330 326 322 324 326 326 326 323 322 321 317 317 319 320 320 319 319 318 316 315 318 319 319 317 317 316 319 318 320
343 342 341 338 336 336 334 331 327 324 326 333 331 330 328 323 324 327 327 325 323 322 321 317 316 318 319 319 318 318 317 316 316 316 317 318 318 318 317 315 319 319 321
341 339 337 336 331 332 329 328 323 326 333 332 331 329 325 324 326 325 323 321 322 320 318 316 316 319 320 317 315 315 315 315 315 315 316 318 319 319 318 316 318 319 319
338 338 328 330 328 327 327 326 324 327 332 330 329 325 324 324 323 321 320 320 319 318 317 315 315 318 319 316 314 314 315 314 314 314 315 317 317 318 318 317 318 318 318
335 327 327 328 325 326 323 322 327 332 331 328 325 324 323 322 322 320 319 318 317 317 315 315 317 316 314 313 313 312 311 310 309 309 310 312 314 315 318 317 318 318 319
327 327 324 324 325 323 324 328 329 327 326 325 324 323 320 319 319 318 318 317 314 313 314 315 315 313 313 311 310 310 308 307 306 306 306 308 310 313 317 318 317 320 318
324 326 326 326 327 328 328 327 326 326 324 323 320 320 318 317 317 316 316 315 314 314 314 314 312 311 310 309 309 307 307 306 305 304 303 304 306 308 314 317 319 318 320
325 325 326 327 327 328 326 326 325 323 323 322 321 319 316 315 315 314 314 314 312 311 312 311 310 309 308 307 305 303 300 301 303 302 301 301 301 304 310 316 318 319 319
322 326 322 319 321 326 325 324 323 323 321 321 319 315 315 314 312 310 310 310 310 310 310 309 308 307 306 305 304 299 295 299 300 300 300 299 299 301 305 314 317 318 320
320 319 321 323 327 325 323 321 321 321 321 318 315 316 314 312 310 307 306 307 308 308 307 306 305 303 301 300 295 294 296 299 298 298 298 298 299 299 301 309 314 317 318
321 322 325 325 324 323 323 322 321 320 318 316 316 315 313 312 310 308 306 305 306 306 305 303 302 299 297 295 293 296 298 297 296 297 297 297 298 298 299 301 308 313 316
325 325 325 324 323 323 323 322 320 318 317 317 317 316 314 312 311 309 307 305 306 305 304 302 299 296 293 292 293 294 295 296 296 296 296 296 297 297 298 299 300 302 310
323 322 321 323 322 321 319 320 320 319 318 315 316 317 315 312 310 308 306 304 305 304 302 300 296 295 292 292 292 293 294 294 295 295 295 295 296 296 297 297 298 299 300
320 321 319 317 315 315 315 315 316 316 313 312 314 315 314 312 309 307 305 303 302 301 298 296 295 295 294 293 293 292 293 293 294 294 294 294 294 295 296 297 297 298 299
317 316 316 315 314 314 313 313 312 312 312 312 312 311 311 310 308 306 305 303 302 300 299 296 296 295 294 294 294 294 293 292 293 293 294 294 294 294 295 296 296 297 298

GFSGL_850_thetae_012.txt.gz
Theta_e
329 330 329 332 329 332 325 320 319 320 322 326 326 323 324 324 322 322 324 326 326 325 326 326 327 328 327 327 327 327 324 323 323 321 322 321 320 321 321 317 317 318 317
329 334 334 332 336 337 329 324 319 319 319 320 321 322 324 325 324 324 323 323 325 327 329 330 328 329 327 327 327 323 322 323 326 325 322 323 322 322 323 319 317 317 318
339 338 343 342 340 339 329 327 322 319 318 319 321 321 322 322 324 323 322 323 325 325 327 328 326 327 324 322 323 323 323 321 323 324 323 323 324 323 322 319 318 318 318
344 342 344 346 343 343 335 328 328 322 320 320 320 321 322 324 324 323 324 325 327 327 328 326 326 325 323 324 324 324 324 322 322 323 323 322 323 322 320 320 319 319 317
347 344 342 345 349 348 337 332 331 330 325 326 324 322 325 324 324 325 327 327 328 328 329 327 326 325 324 322 322 322 324 322 322 323 323 322 321 321 321 320 320 318 317
346 345 347 348 350 346 336 331 334 336 321 324 322 323 326 326 327 330 328 330 329 329 326 325 327 326 324 321 321 321 322 322 323 323 322 322 321 321 320 320 320 318 317
345 347 349 349 349 345 340 334 334 330 328 324 322 328 324 327 329 331 327 330 328 328 326 326 326 327 324 322 321 321 321 323 323 322 322 321 321 321 320 320 319 318 319
343 346 348 349 349 345 342 336 333 337 329 324 327 331 325 326 329 328 330 330 327 327 327 327 327 327 325 323 323 321 322 321 321 321 321 320 318 317 317 319 319 319 316
344 346 348 349 349 345 342 339 334 338 333 333 333 331 329 328 330 331 331 330 327 327 328 326 326 326 324 324 322 321 320 320 320 320 320 318 316 317 319 319 317 317 316
345 348 348 349 349 345 342 340 337 337 336 336 335 331 327 326 331 331 330 326 324 326 326 325 325 325 323 322 321 319 320 320 319 319 317 314 316 319 319 318 317 316 316
346 348 348 347 346 346 342 339 337 337 337 335 332 325 326 330 330 330 330 325 325 326 325 325 324 322 320 318 319 320 319 317 317 317 314 317 318 319 318 318 317 316 318
345 347 346 343 342 341 339 338 337 335 329 329 327 325 326 331 331 329 324 324 326 326 325 322 321 320 317 317 318 319 316 316 314 315 316 317 318 319 319 319 317 318 318
346 345 343 342 341 339 337 336 333 332 329 329 327 329 329 329 328 323 323 325 326 324 322 321 319 317 316 317 318 316 314 314 314 315 315 316 317 317 317 318 318 319 318
342 341 340 340 337 333 330 330 331 328 327 325 325 328 331 329 325 324 325 325 323 321 320 319 317 315 316 318 318 315 314 314 314 312 312 312 311 312 314 317 318 319 318
336 333 333 334 335 330 327 328 326 327 324 324 328 328 329 325 324 324 323 322 320 319 318 317 315 316 317 317 314 312 312 311 309 308 307 307 307 307 310 316 318 318 318
332 330 336 335 330 327 326 326 326 325 325 330 329 328 325 324 323 322 321 319 318 317 316 315 315 315 315 314 312 311 310 309 307 307 306 304 304 305 308 314 318 319 318
333 333 328 326 328 327 326 325 324 326 329 328 325 324 323 321 319 318 317 317 315 313 313 313 314 314 313 311 310 309 309 307 306 305 303 302 301 302 307 314 318 319 318
330 326 326 326 324 324 324 324 326 327 326 324 323 321 319 318 317 316 315 315 315 314 314 314 313 313 310 309 309 307 304 302 300 301 301 300 300 301 304 313 317 319 318
324 324 325 326 328 328 327 327 327 326 324 323 322 320 319 316 314 314 313 312 313 313 312 311 311 310 309 308 306 305 303 297 298 300 299 299 299 299 303 311 315 317 319
326 328 328 327 325 323 326 326 325 324 323 321 321 320 316 314 313 311 309 307 307 309 310 309 308 307 306 305 303 299 295 297 299 298 298 298 298 298 300 306 312 315 317
324 325 323 321 320 324 324 323 323 322 322 321 320 316 315 314 313 312 311 308 305 306 307 307 306 303 301 299 297 294 297 298 296 297 297 297 297 297 298 300 306 312 315
321 320 321 322 324 323 323 323 322 321 320 320 318 315 315 315 312 311 311 308 305 305 306 305 303 300 297 295 293 296 296 296 296 296 296 296 296 297 297 298 299 306 312
323 324 323 323 324 324 323 322 321 319 319 318 316 316 316 315 312 311 310 307 305 305 305 303 302 296 293 292 293 294 295 295 295 295 295 295 295 296 296 297 298 299 301
321 322 324 322 322 322 321 321 318 318 318 318 317 316 316 315 312 311 309 307 304 304 303 302 298 295 294 292 293 293 293 294 294 294 295 294 295 295 296 296 297 298 299
320 321 322 322 321 319 318 317 318 318 318 316 313 313 315 316 313 311 309 306 304 302 300 297 296 295 295 294 293 293 293 293 293 294 294 294 294 295 295 295 296 298 298
316 318 318 317 315 314 314 314 314 313 313 313 312 311 312 311 313 311 309 306 304 302 300 298 296 296 295 294 294 294 295 294 293 293 293 294 293 294 295 295 295 296 297

GFSGL_850_thetae_015.txt.gz
Theta_e
325 326 329 332 330 325 329 325 322 319 318 318 322 326 327 324 324 321 321 322 325 327 326 325 325 326 328 330 328 328 328 327 327 325 326 326 321 321 322 324 323 323 320
336 325 327 330 328 329 328 328 325 321 319 320 323 326 323 324 324 322 324 326 327 325 326 326 327 328 326 326 325 324 325 325 325 327 324 326 327 322 321 321 321 320 318
347 341 330 329 332 329 334 337 328 324 327 322 325 322 321 322 322 322 323 325 326 325 325 325 325 325 326 325 324 324 326 324 327 325 325 325 326 325 325 322 322 320 320
349 348 344 334 331 341 343 343 331 327 324 333 321 319 321 323 321 323 324 326 326 327 327 328 328 327 326 325 324 324 323 324 327 326 324 325 326 326 325 325 324 324 323
348 348 348 346 343 345 348 345 334 326 328 329 323 320 320 322 324 324 326 328 329 327 327 327 329 326 327 326 325 323 321 323 327 326 326 326 325 325 324 324 324 323 322
347 348 349 349 349 348 349 346 338 329 329 333 328 328 326 320 323 326 328 329 330 327 328 328 328 327 326 327 327 324 322 322 322 323 325 326 325 324 324 323 322 321 320
344 345 346 347 348 349 348 344 336 331 333 333 327 323 324 327 323 328 330 332 330 329 330 328 328 327 327 327 327 325 323 323 321 322 322 322 322 322 320 319 318 318 318
341 342 345 346 347 348 347 346 334 335 335 333 329 325 324 327 329 328 330 328 329 330 330 329 328 327 327 327 326 324 324 322 321 322 321 320 320 319 316 315 317 319 319
339 342 343 345 347 348 348 344 336 333 335 335 335 328 328 326 333 329 325 324 330 330 330 328 327 327 325 326 324 323 322 321 320 320 320 319 318 315 316 318 319 319 319
335 340 346 347 348 348 347 344 337 338 336 335 333 335 330 334 331 325 325 326 330 330 328 325 326 325 325 325 322 320 318 319 319 319 316 314 314 318 318 319 319 318 318
336 342 347 348 348 348 346 344 340 340 335 336 335 335 334 334 330 327 326 329 328 329 325 326 326 325 323 321 318 317 318 318 318 315 313 315 316 317 317 317 317 317 318
336 341 346 346 343 343 344 342 342 338 337 335 335 335 334 333 326 325 327 329 327 325 327 326 325 322 321 318 317 316 318 316 314 314 314 314 314 313 312 311 312 316 318
340 345 345 342 341 341 341 341 339 338 337 335 332 329 327 326 329 329 329 325 324 326 326 324 322 321 319 316 316 317 318 316 313 312 312 311 310 309 309 308 308 313 318
342 340 341 340 339 339 337 337 337 336 335 332 330 328 328 327 329 330 326 325 326 325 323 321 320 319 317 315 316 316 314 312 312 310 309 308 309 308 307 306 309 316 318
338 339 339 339 338 334 335 333 332 329 328 328 326 328 329 329 328 325 324 325 324 322 320 319 318 317 316 316 315 313 311 310 309 308 307 307 306 305 304 304 312 315 319
338 338 336 336 334 332 331 329 327 326 325 324 326 330 328 327 324 323 322 321 321 319 318 317 317 315 315 313 312 310 309 309 308 305 303 303 303 302 303 305 312 314 319
335 334 335 336 334 332 328 327 325 326 326 329 329 327 324 322 320 319 318 317 317 317 316 315 315 314 312 312 310 309 308 307 305 302 301 301 301 302 303 306 311 316 318
334 334 336 331 327 326 325 326 325 325 327 327 325 323 320 319 318 317 316 315 315 315 314 314 313 312 311 309 309 308 307 306 302 299 300 300 301 301 302 305 308 314 316
331 331 327 326 326 327 327 325 325 326 327 324 322 321 320 318 315 313 312 310 311 312 311 310 310 310 310 309 308 306 304 299 297 299 299 299 300 300 302 303 306 311 314
324 324 325 326 327 327 327 326 326 326 325 323 322 320 319 315 314 313 312 311 309 307 307 308 309 308 307 306 303 300 296 297 298 298 298 298 299 300 301 301 304 308 312
326 323 324 326 325 320 323 325 325 324 323 323 321 321 317 315 315 313 312 311 309 307 305 306 307 306 304 300 298 295 296 297 296 296 296 297 298 299 300 301 302 304 308
325 323 321 321 322 323 325 324 323 323 322 322 320 320 316 315 314 313 311 310 309 307 305 305 305 303 301 296 295 295 296 296 296 295 295 295 298 299 299 300 301 302 303
324 323 322 323 323 324 323 323 322 322 321 321 320 319 316 316 315 314 311 310 309 307 305 304 304 302 297 293 293 294 295 295 295 295 295 295 297 297 299 300 300 301 301
324 323 322 323 323 322 321 321 321 321 320 320 319 317 316 317 316 315 311 311 309 306 303 302 302 299 296 293 293 293 293 294 294 294 295 295 297 297 298 299 300 300 301
321 321 322 323 321 320 320 320 319 320 319 319 319 317 316 315 315 316 313 311 308 305 303 301 298 296 295 295 294 293 293 293 293 294 294 294 295 296 297 298 299 299 300
317 318 320 319 318 316 317 318 317 317 317 317 316 315 313 311 311 312 313 312 309 306 303 302 300 297 295 294 294 294 295 295 294 293 294 294 296 297 297 297 297 298 299

GFSGL_850_thetae_021.txt.gz
Theta_e
351 352 349 345 351 341 344 349 350 344 344 344 340 342 332 326 330 320 322 330 337 337 336 336 336 336 334 332 332 332 333 331 331 330 331 330 330 331 329 331 329 331 330
356 350 346 344 342 343 337 346 348 340 336 330 331 338 324 325 324 330 329 323 336 337 337 336 336 335 335 332 331 331 331 330 331 331 331 331 331 330 330 329 327 328 327
357 356 353 347 341 341 336 340 350 338 332 328 324 322 319 320 326 331 331 322 322 336 336 336 336 335 336 334 333 334 333 332 331 331 331 329 329 330 329 329 329 329 329
356 357 357 355 350 347 346 341 341 339 333 328 325 321 319 321 327 331 330 320 321 336 336 336 336 336 336 334 335 333 332 332 331 329 330 329 328 329 327 330 329 329 327
356 357 357 357 356 354 352 352 349 345 340 334 328 325 320 321 329 330 330 321 327 336 332 335 335 336 336 333 332 331 330 331 331 329 328 328 327 328 328 328 328 328 327
356 357 358 360 358 358 355 352 353 351 345 342 335 327 323 321 330 331 330 325 330 334 335 335 333 334 329 329 330 329 328 327 327 330 329 328 326 328 328 327 327 326 325
357 358 358 360 359 359 358 356 354 352 348 344 340 328 325 323 332 330 333 331 335 334 334 334 334 336 333 332 332 329 327 326 327 328 327 329 328 327 325 325 323 323 322
357 358 359 360 360 359 358 355 353 351 348 346 343 334 328 334 334 331 331 329 326 331 335 330 331 335 332 328 329 330 329 332 330 328 327 325 325 325 321 320 318 316 319
359 359 359 359 360 358 350 346 345 346 347 346 346 339 332 334 338 335 332 328 330 331 331 332 337 336 327 329 329 327 328 330 328 327 325 324 323 320 317 318 319 319 320
359 359 356 355 352 348 350 351 350 348 347 348 344 340 339 337 340 337 333 332 333 335 334 336 334 329 327 329 327 325 329 329 327 326 326 324 320 319 318 319 320 320 320
356 356 358 358 357 354 350 349 348 347 348 344 343 341 338 341 338 337 332 329 333 333 335 336 332 328 328 327 325 326 325 324 322 320 321 321 321 317 318 318 319 319 318
353 355 354 352 354 352 350 350 349 347 346 344 342 340 339 339 340 339 337 332 332 331 334 332 328 329 329 327 326 324 321 320 318 320 321 320 317 317 316 316 315 313 312
356 356 355 350 352 353 350 349 349 346 343 343 340 341 340 339 340 339 334 333 333 331 328 327 331 328 328 326 323 320 319 318 319 321 319 317 316 315 314 313 312 310 308
357 353 353 349 351 348 349 348 344 344 343 342 341 341 340 338 338 336 335 332 328 327 326 328 327 326 325 321 320 319 319 319 320 317 315 315 314 313 311 310 309 308 309
344 344 345 347 346 343 345 345 345 342 342 343 340 337 337 337 336 333 328 327 328 327 329 328 326 324 324 323 322 321 319 319 317 316 315 313 311 310 309 308 307 308 310
346 347 346 346 345 342 342 341 340 338 337 337 336 335 335 334 333 328 328 328 329 328 326 324 322 322 322 321 321 320 319 317 316 315 313 311 310 308 307 307 307 308 310
347 347 344 343 342 341 340 338 336 332 329 329 329 329 330 327 328 328 326 324 322 319 318 320 321 321 321 320 320 319 317 315 314 312 311 309 307 307 306 306 307 307 308
344 342 341 340 339 338 336 334 333 332 329 327 325 326 327 328 326 322 319 318 317 317 317 319 321 320 320 319 317 316 315 314 312 309 307 306 306 306 306 306 306 307 307
341 339 339 338 337 335 333 331 331 331 330 329 326 328 327 324 320 319 317 317 321 320 319 318 318 317 317 315 314 313 312 310 307 305 306 306 305 305 305 305 306 306 306
338 337 336 334 333 332 331 330 329 330 331 329 325 324 324 321 319 318 316 318 319 317 316 315 315 314 314 313 312 310 308 305 306 306 305 305 305 305 305 305 305 306 306
333 331 331 332 332 331 330 329 329 328 330 329 326 325 323 321 321 321 320 320 318 317 316 315 314 313 312 311 309 306 305 305 305 304 304 304 304 304 305 305 305 305 306
332 330 329 330 330 329 328 328 327 327 326 326 325 325 324 322 322 321 320 319 318 317 316 315 314 312 310 308 305 304 304 304 304 303 303 303 304 305 304 305 305 305 305
329 329 329 329 330 328 328 327 327 326 326 325 324 324 324 323 321 321 319 319 317 316 315 314 312 310 308 305 302 302 303 303 303 302 302 303 304 304 304 304 304 305 305
329 329 328 328 328 328 327 327 327 326 325 325 325 324 324 322 321 320 319 318 317 316 315 313 311 309 307 304 301 300 301 301 300 301 301 302 303 304 304 304 304 304 305
327 327 327 326 326 326 324 325 325 324 323 323 324 321 321 321 320 319 319 318 316 315 314 313 310 308 306 302 300 300 299 298 296 296 296 301 303 303 303 303 303 304 304
325 324 324 324 323 323 323 323 322 322 321 322 320 320 319 319 318 317 317 316 316 315 314 313 310 308 305 303 301 299 296 295 296 296 296 297 302 303 301 301 302 303 303

GFSGL_850_thetae_024.txt.gz
Theta_e
355 352 345 343 339 340 345 348 348 347 347 344 343 341 337 325 324 324 329 338 329 324 320 323 334 335 333 331 332 334 333 332 333 332 331 331 330 329 329 328 328 329 328
354 353 345 343 339 339 340 344 343 342 345 344 341 339 339 329 323 323 322 333 324 321 320 320 327 335 334 334 330 327 329 330 330 331 330 329 329 331 329 329 326 328 329
357 353 352 345 343 338 334 335 339 338 340 338 340 337 332 328 323 321 324 328 328 323 323 321 327 331 332 333 334 330 330 330 332 332 333 331 327 328 329 328 327 328 329
359 357 349 344 338 337 340 335 336 339 338 338 339 334 332 327 325 321 325 330 328 322 324 324 324 333 331 333 333 331 331 329 329 331 328 328 331 329 327 328 328 329 328
357 358 356 348 346 349 351 349 344 344 342 341 342 340 338 332 327 321 325 330 327 323 322 323 323 331 332 334 333 331 331 330 329 329 330 330 329 328 328 327 325 327 325
354 355 356 357 358 356 355 354 354 353 351 348 348 347 343 336 327 321 323 330 328 323 324 324 322 334 336 333 332 330 330 330 329 328 327 327 327 328 326 327 326 325 325
354 355 356 356 358 359 358 356 355 355 353 354 353 351 346 341 333 325 327 331 330 331 332 329 327 329 331 333 335 330 328 329 330 327 327 326 326 325 325 324 322 321 319
355 358 359 359 360 361 359 358 357 356 355 355 355 352 348 343 337 330 333 331 330 335 336 333 329 328 330 330 331 328 328 329 329 328 329 325 326 325 324 324 323 317 316
358 358 361 361 364 363 360 359 359 358 357 355 353 349 346 343 338 332 333 332 331 332 332 334 330 328 326 328 332 327 328 328 326 328 328 325 325 324 324 319 317 318 319
360 358 363 364 365 362 360 360 360 357 355 353 350 348 346 345 339 337 336 334 337 334 331 328 329 329 329 331 329 328 329 326 328 327 327 326 324 321 321 318 318 319 319
363 363 362 363 362 361 361 359 353 353 353 349 347 347 345 342 339 338 337 340 337 336 333 334 335 334 334 331 328 328 326 325 325 324 321 319 320 322 320 319 317 318 319
364 363 364 362 359 359 356 352 352 351 349 348 346 344 343 342 340 340 341 339 335 335 332 333 333 333 331 327 324 326 327 324 321 319 319 320 322 319 317 316 316 315 313
362 361 361 360 360 356 354 350 351 349 347 345 344 344 341 342 342 341 340 339 336 335 332 331 331 328 327 328 327 326 323 320 318 319 321 320 319 316 315 313 312 310 309
359 361 360 358 356 355 354 350 349 347 345 342 342 342 342 343 341 340 338 338 336 334 331 327 325 325 327 326 324 321 320 319 319 319 317 316 316 315 312 310 309 308 307
360 357 355 353 352 350 347 346 345 343 343 343 343 342 340 339 338 337 336 332 329 328 326 326 328 326 324 324 323 322 321 319 318 319 317 316 315 312 310 309 307 307 308
356 354 350 349 347 346 345 344 343 343 342 342 340 337 337 337 336 332 328 327 327 327 328 329 328 325 324 325 322 321 320 320 319 317 316 315 312 310 308 307 307 307 307
342 346 345 345 343 342 343 343 341 338 337 337 335 334 334 330 331 329 327 326 326 327 328 327 320 321 322 321 320 320 319 317 316 315 313 311 309 307 307 306 306 306 307
347 344 344 342 342 342 340 339 336 333 330 329 328 328 328 327 327 327 326 322 320 318 318 318 320 321 320 319 319 318 317 316 314 312 310 308 307 307 306 306 306 306 306
344 342 343 342 341 339 337 336 334 333 331 328 325 325 326 327 326 323 320 318 321 322 322 320 319 319 318 317 316 316 315 314 311 308 306 307 306 306 305 305 306 305 306
340 340 339 339 337 335 334 332 331 332 331 329 329 325 326 326 324 320 319 317 318 320 318 317 316 316 315 315 314 314 312 308 306 307 306 305 305 305 305 305 305 305 306
337 338 336 335 333 333 332 331 330 331 329 329 327 326 323 323 322 321 320 320 321 319 318 317 316 315 314 313 312 309 307 306 306 306 305 304 304 304 305 305 305 305 306
333 331 333 333 332 332 330 330 329 329 331 330 329 327 325 324 323 322 321 321 320 319 318 317 316 315 313 311 309 307 305 305 305 305 304 304 304 305 305 305 305 305 305
331 330 330 331 331 330 329 329 328 327 326 326 326 325 325 325 324 323 321 321 319 318 317 316 315 313 311 309 306 303 303 304 304 304 302 303 304 304 304 305 305 304 305
330 330 329 330 330 329 329 328 327 327 326 326 325 324 324 324 324 322 321 320 319 318 317 316 314 312 310 308 306 302 301 302 302 301 299 299 303 304 304 304 304 304 305
328 328 328 328 328 327 327 326 326 326 325 324 325 325 324 325 323 321 321 320 319 317 316 315 314 312 310 308 304 301 301 300 300 299 296 296 301 303 304 303 303 303 304
325 325 326 326 325 325 325 325 324 324 323 323 322 323 322 320 320 320 319 319 318 316 316 315 314 312 309 307 305 303 301 299 296 296 296 296 302 303 303 301 303 302 303

GFSGL_850_thetae_027.txt.gz
Theta_e
353 352 353 350 341 344 342 343 347 353 348 345 345 346 344 342 339 322 322 322 329 332 326 322 327 329 326 332 333 332 333 333 332 332 332 332 330 330 329 329 330 328 328
352 352 351 351 346 341 340 336 337 346 351 349 344 344 344 343 340 326 321 322 328 333 332 324 324 327 324 322 327 332 332 330 330 330 329 329 329 328 328 330 327 329 326
351 350 349 350 350 339 336 337 334 335 338 346 347 344 342 340 340 337 324 321 325 329 330 325 322 325 325 326 328 327 327 329 329 329 328 328 327 327 327 329 329 328 327
349 349 348 348 346 340 334 334 336 335 340 342 342 341 342 342 341 338 332 324 323 329 332 326 326 328 325 326 328 330 330 331 330 329 329 330 329 328 331 329 329 329 328
347 346 345 343 344 344 337 335 337 340 338 343 346 347 345 344 342 341 335 329 323 329 330 328 327 330 327 328 329 329 332 331 329 329 330 329 328 327 329 329 329 327 326
345 344 342 344 346 343 338 339 342 345 346 347 349 349 349 348 346 344 340 334 327 327 330 326 329 333 328 331 333 333 332 330 329 330 330 330 329 327 327 326 324 322 322
345 346 346 346 346 345 344 347 352 352 352 352 352 353 353 352 351 347 344 339 332 327 329 327 326 329 326 332 334 333 332 331 326 328 329 329 327 326 326 325 323 323 322
347 347 348 348 348 351 354 354 357 357 356 356 356 355 355 354 352 350 347 341 333 331 330 330 332 333 330 328 332 331 332 331 328 328 328 327 327 327 326 324 324 322 317
349 348 349 350 350 353 356 358 359 359 358 358 357 357 354 353 351 348 346 339 333 332 331 335 334 333 331 328 326 326 328 330 327 328 326 324 327 327 325 323 322 320 319
350 350 350 352 352 354 358 359 360 360 359 358 357 356 353 351 348 345 343 338 332 331 331 332 334 332 329 327 328 330 330 327 328 325 324 325 325 325 321 320 321 321 322
350 353 352 354 356 358 359 360 361 360 360 359 356 354 352 347 345 344 342 338 337 337 338 335 332 329 329 332 331 331 327 328 326 325 324 322 319 319 322 321 319 316 315
355 360 359 361 362 363 363 363 360 361 361 359 354 351 347 345 344 342 341 338 338 339 336 336 335 333 333 331 331 328 327 327 326 322 319 318 320 320 316 316 315 314 312
360 361 362 365 366 366 364 360 360 361 356 351 348 346 345 343 342 341 339 339 340 339 335 337 334 329 330 330 328 328 327 321 319 319 318 320 318 318 316 315 314 311 309
363 364 363 363 366 366 359 359 359 353 350 348 345 344 342 342 341 341 341 340 339 339 332 331 332 330 325 326 324 322 321 320 319 318 318 318 317 316 315 313 310 309 307
364 364 362 362 363 360 358 353 351 349 348 345 343 341 341 341 341 340 338 336 335 337 335 332 326 326 325 325 324 324 322 320 319 318 318 318 316 315 313 309 307 306 306
360 359 358 359 357 354 351 349 347 345 344 341 342 343 342 340 338 336 332 332 329 328 327 326 328 328 325 323 323 324 321 319 320 319 319 317 314 311 309 307 306 306 306
352 348 352 352 349 347 347 346 343 342 342 342 342 338 336 336 334 331 327 326 326 327 327 327 327 325 321 321 320 320 320 320 319 317 315 314 313 310 307 306 306 306 306
347 346 347 344 345 344 343 343 342 341 339 338 336 334 334 331 328 328 327 326 325 324 320 319 318 320 321 320 320 319 317 316 315 314 314 312 310 307 306 305 305 306 305
340 341 343 342 340 339 339 337 336 334 331 328 328 327 327 327 326 327 325 321 319 321 322 320 320 319 318 318 317 317 316 316 316 314 307 306 306 305 305 305 305 305 305
343 343 344 342 343 341 338 335 334 332 330 328 324 323 324 325 325 324 322 320 319 321 319 319 318 317 316 315 315 314 314 313 309 306 306 305 304 304 304 305 305 305 305
340 340 339 340 338 336 335 334 334 333 331 329 328 326 324 324 324 322 321 320 317 320 318 318 318 317 315 314 312 311 308 305 305 306 305 305 304 303 304 305 305 305 305
337 337 336 335 334 334 331 330 332 332 331 329 328 326 324 323 322 322 321 321 320 319 319 318 317 316 315 313 311 309 307 305 305 305 305 304 303 304 304 304 305 304 304
333 331 332 332 329 332 331 330 330 331 330 330 329 328 326 325 323 323 323 321 321 320 319 318 317 316 315 313 311 308 304 304 304 304 304 304 301 304 304 304 304 303 304
326 330 329 330 331 330 329 328 328 327 327 327 327 326 325 325 324 323 323 322 321 319 319 317 317 316 314 313 311 309 305 301 303 303 301 297 297 302 304 304 303 303 303
330 330 329 329 328 327 327 328 327 326 325 325 325 324 324 324 324 324 322 321 320 318 317 317 316 315 314 313 312 309 305 301 301 300 299 297 296 303 304 303 302 302 303
326 326 326 327 327 326 324 326 325 326 325 325 324 323 322 323 323 321 322 320 320 318 317 316 316 314 313 313 312 310 304 301 300 297 296 296 297 303 303 302 302 302 302

GFSGL_850_thetae_030.txt.gz
Theta_e
348 349 349 351 349 343 343 347 349 349 350 349 349 345 346 346 345 342 332 320 322 326 325 324 321 327 329 331 332 332 332 332 332 332 332 332 332 331 330 330 329 330 329
348 349 349 350 351 347 343 342 345 348 348 349 350 347 346 346 346 344 341 327 320 326 328 325 323 324 327 328 331 332 333 332 331 332 331 330 329 329 329 330 330 330 328
349 349 349 350 350 349 343 339 340 343 348 348 351 347 344 344 345 344 342 339 324 321 329 330 327 325 325 326 327 327 329 332 329 327 328 327 328 328 328 326 326 328 330
347 350 350 349 349 344 343 341 336 337 339 344 348 350 350 347 344 343 343 341 335 324 323 330 330 330 325 326 326 330 330 329 329 329 329 329 329 328 328 328 327 328 329
347 349 349 349 347 346 344 341 339 337 337 336 340 343 347 348 348 347 344 342 341 335 323 325 330 330 327 329 330 329 331 331 332 331 329 329 329 330 329 329 328 327 325
348 347 347 348 348 347 344 341 341 338 338 339 338 339 343 346 347 348 347 345 343 341 334 324 329 327 326 329 333 332 329 332 331 331 329 327 328 328 329 326 325 324 324
347 347 347 347 347 346 344 344 341 341 340 340 342 344 345 349 350 351 350 348 346 345 340 333 326 329 326 327 333 331 326 330 330 330 329 327 327 328 327 327 326 326 324
349 348 347 347 346 347 345 342 342 342 343 344 347 347 349 349 350 353 353 350 349 346 343 339 329 329 328 329 332 331 329 331 328 328 330 329 327 325 325 326 326 325 322
350 350 348 346 346 346 346 344 343 346 346 346 346 349 352 354 355 354 354 352 349 347 342 335 332 329 330 331 332 330 328 326 326 328 330 327 327 324 326 326 325 324 321
347 347 348 347 346 346 347 349 349 350 351 350 351 355 356 355 354 354 352 350 348 344 339 333 331 331 334 333 333 329 325 327 330 329 328 328 324 325 323 321 319 321 322
345 345 347 348 347 346 348 352 354 354 356 356 358 358 357 355 354 352 349 344 342 340 337 334 332 332 334 333 332 327 329 330 330 327 326 325 324 321 319 321 320 317 316
346 348 349 351 351 350 351 354 357 358 357 360 358 359 356 353 350 345 343 343 341 338 337 337 338 336 332 329 329 331 329 329 327 326 320 318 318 320 319 318 317 315 314
348 349 349 352 352 352 354 358 359 357 359 357 351 350 353 349 345 343 341 340 339 338 338 339 336 335 334 330 329 329 328 327 322 319 318 317 317 316 316 316 315 315 311
352 353 353 353 355 356 358 359 359 358 356 352 355 353 348 344 343 341 341 340 339 339 338 338 335 335 333 330 326 325 325 321 320 319 318 318 318 317 316 315 314 309 306
355 357 358 359 361 363 364 364 359 354 352 348 350 346 345 343 342 341 341 340 340 339 338 336 333 331 331 325 323 324 323 321 320 319 319 318 318 317 315 311 307 306 306
358 362 363 364 362 361 363 357 352 350 348 346 345 344 340 341 341 340 338 337 336 335 336 335 333 327 326 324 322 323 324 322 320 320 320 320 318 314 312 308 306 306 305
359 357 356 354 354 354 350 348 334 340 344 343 342 342 342 339 338 337 333 330 330 329 328 327 326 326 324 321 321 321 322 321 320 319 320 317 314 312 310 307 306 305 305
351 351 351 349 343 334 332 330 341 342 342 342 342 339 336 336 335 332 328 325 325 325 326 325 324 325 322 321 321 319 319 319 318 316 315 314 313 308 306 305 305 305 305
342 343 345 346 344 342 341 341 341 341 340 339 337 334 333 332 329 328 326 325 324 321 319 319 319 318 320 320 319 318 318 316 315 314 313 307 306 305 305 304 304 305 305
342 341 341 341 340 339 340 340 339 337 331 330 332 329 327 327 325 325 325 324 319 319 321 321 321 319 317 316 316 315 314 313 311 308 306 306 306 305 304 304 304 305 305
342 340 338 337 337 336 334 333 332 329 327 326 324 324 323 323 323 323 323 321 319 320 320 319 318 317 317 316 314 313 310 308 305 305 305 305 305 305 303 303 304 304 304
340 342 341 340 339 338 337 335 333 333 331 328 327 325 324 323 323 322 321 320 318 319 319 319 318 318 317 316 314 312 311 310 308 306 305 304 304 304 301 303 304 304 303
335 336 337 337 336 335 333 332 331 330 331 330 328 326 324 323 323 322 321 321 320 319 319 319 319 318 317 316 314 313 310 308 304 305 304 304 304 300 300 302 304 303 303
328 328 332 333 333 331 331 328 327 331 330 330 329 328 326 325 324 323 323 323 321 320 320 319 318 317 316 315 313 311 310 307 303 301 303 303 299 297 299 303 303 303 302
324 322 329 328 329 329 329 328 328 328 328 328 327 327 326 326 324 324 323 322 321 321 320 319 317 316 316 314 312 312 311 307 303 301 300 299 298 297 299 302 302 302 302
327 328 328 328 328 328 328 327 326 326 326 325 325 324 323 324 324 324 324 323 322 320 319 317 317 317 315 314 313 312 309 304 302 300 299 297 296 296 300 302 301 302 302

GFSGL_850_thetae_033.txt.gz
Theta_e
345 346 347 347 347 348 350 339 341 342 346 348 348 347 343 342 337 331 334 324 320 320 322 323 320 319 321 326 334 333 332 331 332 332 331 332 331 332 331 330 330 330 329
345 345 346 347 347 348 349 344 339 342 346 349 349 349 347 346 345 345 344 342 336 321 323 326 323 321 321 327 328 330 332 332 332 332 331 331 328 328 330 330 327 327 328
345 346 346 347 347 348 349 348 338 340 344 348 348 348 349 348 345 346 346 345 343 339 322 324 328 326 323 324 328 329 329 328 329 332 331 327 328 328 328 328 329 327 328
344 345 346 347 346 348 348 349 342 337 339 343 345 347 347 349 350 345 344 344 344 342 337 324 325 329 327 327 327 329 329 330 329 329 328 329 330 328 329 328 328 328 327
344 345 346 347 346 348 348 348 346 342 338 339 341 345 348 348 349 348 347 345 344 344 342 338 327 325 329 328 328 328 330 330 332 331 331 331 329 328 327 328 328 328 325
345 344 344 347 346 347 348 348 348 346 345 340 338 341 342 344 345 347 348 348 348 346 344 342 337 327 325 329 328 328 334 334 331 332 333 332 330 329 327 327 328 327 325
345 344 345 346 345 346 348 348 348 347 346 346 344 341 339 340 340 341 342 345 348 348 346 344 342 339 327 327 329 329 333 334 333 327 329 329 329 330 329 328 328 329 327
345 345 346 346 345 346 348 348 348 348 346 344 343 344 342 339 339 341 342 347 352 351 348 346 345 342 338 327 329 329 330 332 333 328 328 328 327 330 328 327 325 325 325
346 346 346 346 346 347 347 347 348 350 349 346 345 345 344 339 339 343 349 354 354 352 350 348 346 342 339 333 330 331 331 332 331 328 328 328 329 328 327 324 324 324 323
344 345 345 346 347 347 346 346 346 348 348 349 347 346 344 340 344 351 354 355 356 353 348 345 342 338 334 333 333 332 331 332 328 326 327 329 327 327 325 325 322 319 320
346 346 346 347 347 347 347 350 350 350 353 353 349 347 347 350 355 354 355 357 355 347 342 341 339 334 332 333 336 335 334 332 326 329 329 327 326 321 318 318 318 316 315
339 344 347 347 347 349 351 351 354 354 354 356 352 353 353 356 356 356 354 354 346 343 341 338 336 333 332 334 335 332 332 329 329 328 327 321 318 317 318 318 316 315 315
342 344 345 345 348 351 352 350 355 355 354 357 360 356 355 358 355 352 348 344 342 341 340 337 336 336 337 335 331 329 328 328 328 327 320 318 318 317 316 316 316 315 313
343 343 343 344 347 350 352 354 356 359 359 360 357 352 353 350 345 333 337 342 341 339 339 337 339 336 335 335 330 329 328 327 325 320 319 318 318 317 317 317 316 313 308
349 347 347 348 350 353 356 358 358 359 359 358 353 351 347 346 338 343 341 339 340 339 338 338 336 335 334 332 329 324 323 322 321 320 318 318 318 318 318 317 314 310 306
355 352 352 353 354 357 357 355 356 359 354 353 351 343 333 336 338 342 341 341 339 339 337 336 334 333 332 329 324 322 322 323 323 320 319 320 320 320 317 313 310 307 305
358 358 358 356 357 356 344 338 331 332 335 333 330 331 332 334 341 341 340 340 341 340 339 337 334 332 327 325 322 321 321 322 321 319 319 320 320 315 313 312 308 305 304
336 332 331 340 341 340 336 332 333 332 332 333 332 338 337 338 339 340 339 338 335 333 331 329 326 325 325 322 320 321 320 319 318 319 319 317 315 314 310 306 305 304 304
339 336 330 335 336 333 333 333 332 330 331 336 340 341 341 340 338 335 332 329 326 325 325 324 323 322 320 320 320 320 319 318 317 317 316 315 313 308 305 304 304 303 304
341 340 341 339 335 332 331 333 338 339 340 341 341 338 337 336 333 329 326 325 324 323 320 319 319 319 319 319 318 317 316 315 314 313 310 308 306 305 305 304 304 303 304
341 340 340 338 338 337 338 340 339 337 337 337 334 333 331 329 328 326 325 324 322 320 319 320 321 319 317 317 316 315 313 312 308 305 304 304 305 305 304 303 302 303 304
339 338 338 336 336 337 337 335 331 330 331 330 328 326 325 324 324 324 323 321 320 319 320 319 319 318 317 317 316 315 312 311 310 309 306 305 304 304 303 303 301 302 303
336 335 334 334 334 334 333 332 329 328 326 325 323 323 324 324 324 322 321 320 319 319 319 319 318 318 317 316 315 313 310 309 308 306 304 304 304 303 303 299 301 302 303
327 326 333 334 333 333 332 331 332 331 329 327 325 325 323 323 323 322 321 320 320 319 319 319 319 318 317 316 315 312 311 309 308 303 302 301 302 302 298 297 300 302 302
328 327 326 329 329 329 329 328 328 329 330 330 329 327 325 325 323 323 322 322 322 322 321 320 319 318 317 316 314 312 311 309 305 303 301 300 299 299 298 297 299 302 301
327 327 324 324 326 327 328 327 328 327 327 326 327 326 327 327 325 324 324 323 322 321 321 320 318 319 318 316 314 313 312 310 308 303 300 300 298 297 296 297 300 301 301

GFSGL_850_thetae_036.txt.gz
Theta_e
344 344 345 346 346 346 346 346 348 345 341 343 342 345 347 346 345 336 332 329 322 320 322 322 321 319 319 323 330 333 333 332 332 331 331 331 331 331 331 331 330 330 330
343 343 344 344 345 346 346 346 347 348 341 342 342 344 348 346 342 337 329 328 332 324 321 321 324 323 321 320 320 325 332 330 332 331 330 331 331 328 328 328 328 328 328
343 343 343 344 345 345 345 346 346 348 343 340 341 343 347 346 345 343 341 342 342 342 338 327 322 326 325 322 321 325 329 331 331 328 327 329 329 328 328 328 328 328 328
343 343 343 343 344 344 345 346 346 347 347 339 339 341 345 346 346 345 345 343 344 344 344 341 335 323 325 328 325 323 326 328 329 330 331 329 328 329 329 327 326 326 327
342 343 343 343 344 344 345 345 345 346 347 344 338 340 342 346 346 347 348 348 345 344 344 344 342 336 324 326 331 330 328 328 328 329 332 332 331 331 330 329 327 327 326
342 341 342 344 344 343 344 345 346 345 346 347 344 338 340 343 343 345 347 348 349 346 345 345 345 342 339 330 327 332 333 331 330 331 331 332 331 331 330 330 329 329 327
341 341 342 343 343 343 344 344 345 346 345 345 346 346 340 339 342 344 346 347 348 349 349 347 347 345 342 341 334 328 332 334 331 334 334 330 328 329 329 328 329 328 326
341 342 343 343 343 344 345 344 345 345 346 345 343 345 347 345 341 341 341 344 346 347 347 346 348 347 345 343 340 332 330 331 331 332 334 332 328 329 327 327 329 327 325
342 342 343 344 344 345 345 344 344 345 346 346 346 346 345 345 345 344 342 344 346 347 347 349 351 348 345 344 342 338 331 330 330 332 333 331 328 327 329 328 327 325 325
342 341 341 343 344 344 344 344 345 345 346 347 347 346 347 347 346 346 346 345 348 348 349 353 351 348 346 344 341 339 332 331 331 332 331 327 327 329 326 325 324 320 319
340 341 342 342 343 343 344 346 348 348 347 347 348 349 348 348 347 347 348 348 349 352 353 354 350 344 343 340 336 336 332 334 333 333 328 328 329 326 321 317 318 318 317
342 344 345 344 344 346 348 349 351 349 351 350 351 352 350 349 349 349 350 349 353 353 353 349 343 341 340 334 332 332 334 334 334 328 328 328 326 318 317 316 315 315 315
345 346 347 348 350 352 354 354 355 355 355 355 355 355 353 355 353 351 351 355 355 351 349 342 341 338 336 333 333 336 332 331 330 329 328 326 319 318 317 316 316 316 315
343 344 344 347 349 353 356 357 357 357 358 357 357 357 356 356 352 354 345 336 350 345 343 343 341 337 335 336 336 333 330 328 328 328 326 319 318 317 317 317 317 316 314
343 346 347 345 348 350 354 356 358 359 358 355 355 357 355 352 352 348 339 330 334 341 341 340 337 336 337 336 334 332 329 329 327 326 320 319 317 317 317 318 318 315 312
350 352 351 350 348 349 352 351 355 357 358 359 358 353 345 346 343 343 337 333 331 330 336 339 338 338 336 334 333 331 326 324 323 321 320 318 318 318 319 319 315 311 307
346 351 354 355 355 353 353 346 339 335 335 334 334 332 332 327 330 333 331 331 335 339 338 338 338 337 334 332 331 325 322 322 322 322 320 318 319 319 318 315 311 308 305
340 340 339 342 348 348 350 344 335 333 332 332 331 331 330 331 334 331 338 340 341 340 338 338 336 335 333 331 326 322 321 321 320 319 318 319 319 317 314 311 306 304 303
340 335 335 336 335 339 343 338 334 332 333 333 332 333 333 332 333 340 339 337 337 339 339 337 335 333 330 326 324 321 320 320 318 318 317 317 316 314 310 305 304 303 302
339 338 339 337 335 336 335 333 333 332 331 331 332 332 338 340 339 339 338 337 338 335 332 328 325 325 325 324 320 320 320 318 317 315 314 314 311 308 305 304 304 302 301
339 339 339 336 333 332 332 331 331 331 330 331 333 337 336 336 336 334 333 328 327 325 324 324 323 320 319 319 319 317 316 315 314 312 308 304 304 305 305 304 303 300 301
336 336 336 336 335 333 333 334 334 335 333 333 335 336 335 335 332 329 325 323 322 322 320 319 319 320 319 317 316 315 313 312 311 310 308 306 304 305 304 303 302 300 301
335 334 333 333 336 335 334 333 333 333 334 333 333 332 332 330 326 324 322 321 320 319 319 320 320 318 317 316 315 314 311 308 308 308 306 304 304 304 303 302 299 299 300
332 332 331 331 332 332 332 331 330 329 331 332 331 329 325 325 324 323 322 321 320 319 319 318 318 318 317 316 315 314 311 309 307 306 305 303 304 303 303 299 297 298 300
326 327 331 332 331 331 330 330 330 329 329 326 325 324 324 324 324 323 322 320 320 319 320 319 318 318 317 316 315 312 311 309 304 304 301 301 300 300 299 298 297 297 300
326 325 325 327 328 328 327 326 327 327 328 328 326 326 325 324 324 324 322 320 321 321 321 320 319 319 317 316 314 312 312 311 308 303 301 300 300 299 298 297 297 298 299

GFSGL_850_thetae_042.txt.gz
Theta_e
340 337 339 341 341 343 345 346 346 346 347 346 353 346 348 347 344 343 343 349 334 331 332 333 324 325 335 337 337 336 335 335 334 335 335 335 331 331 336 333 333 335 334
343 341 337 338 339 340 342 343 345 345 346 346 347 347 343 351 343 343 341 347 342 333 330 327 323 324 323 328 337 334 335 335 334 336 336 336 334 337 337 338 335 334 334
354 347 342 339 339 339 339 340 342 344 345 346 346 347 346 341 343 340 340 342 343 340 334 328 322 322 323 332 331 335 337 336 334 335 335 338 335 337 337 333 334 335 335
353 354 349 342 341 340 339 339 341 343 344 345 346 346 346 341 336 335 335 339 342 345 340 332 326 323 321 321 324 326 333 334 337 336 335 335 337 336 336 334 336 337 335
351 353 351 342 342 342 341 341 341 342 343 344 345 346 346 346 340 333 332 334 339 343 341 334 329 330 336 335 331 326 329 330 335 337 336 334 335 336 337 334 336 335 335
349 348 346 346 344 342 342 342 342 342 343 343 344 345 346 345 343 335 330 330 333 339 344 341 339 337 340 342 342 337 335 325 328 334 336 335 335 336 336 336 334 335 335
346 344 343 344 345 343 345 346 344 345 345 343 343 344 345 345 344 338 332 329 331 336 342 342 344 345 342 344 344 344 339 337 332 332 335 336 337 339 338 337 335 334 335
342 341 343 343 343 345 345 343 343 344 345 346 347 346 345 345 344 343 340 335 334 338 341 343 343 344 345 344 344 344 344 343 340 333 337 339 339 339 337 334 334 334 334
342 341 341 342 343 345 343 343 355 356 357 358 358 357 355 349 349 346 345 345 343 339 338 338 342 344 345 346 348 348 347 345 341 341 333 334 335 334 334 336 335 334 333
339 341 341 341 342 342 347 354 357 357 357 357 356 357 358 357 356 353 351 348 348 345 344 344 346 344 344 346 347 349 347 347 343 340 339 335 333 333 333 332 333 333 333
349 348 345 343 344 350 351 353 354 356 356 354 350 346 344 350 350 350 350 349 347 349 349 352 352 349 346 346 348 350 349 347 344 342 342 334 332 334 332 329 328 331 327
350 351 350 350 352 356 351 352 355 356 351 348 349 348 340 342 341 343 342 345 351 349 351 352 352 350 348 346 346 349 347 344 344 342 341 335 334 333 332 330 328 322 322
348 348 349 350 354 354 354 356 357 356 356 356 355 348 342 353 340 339 336 332 349 352 351 352 352 350 348 343 345 345 344 342 342 336 337 335 333 333 331 327 321 318 316
338 339 343 352 356 355 358 359 358 357 357 356 355 355 352 351 338 339 340 338 341 351 352 350 352 349 345 340 336 336 338 338 338 338 336 334 333 331 326 324 321 319 319
342 346 348 356 351 359 359 359 359 357 355 355 356 355 356 356 356 354 351 353 351 354 353 348 348 346 341 340 338 332 333 332 335 333 334 334 331 327 324 322 321 320 319
353 354 355 356 357 357 354 356 357 357 356 357 358 357 359 357 357 355 355 355 357 356 352 346 343 340 337 334 332 333 335 333 334 333 334 331 328 325 323 323 321 320 319
352 349 347 352 353 354 353 351 354 354 354 354 354 355 356 356 355 356 356 357 356 350 343 341 339 331 331 332 332 334 335 333 333 333 331 328 326 324 323 322 321 320 319
345 347 350 352 352 350 349 348 346 343 343 343 344 339 334 334 334 337 344 345 340 338 335 333 332 332 333 333 332 332 334 334 333 330 328 327 325 324 323 321 321 319 316
340 341 344 347 350 347 346 344 341 338 336 335 333 333 331 332 335 338 337 337 336 332 331 333 333 334 332 334 335 334 334 334 330 329 327 325 325 324 322 321 319 316 313
340 341 341 341 344 343 341 339 337 339 340 338 336 334 330 334 332 330 330 330 329 330 332 333 332 330 332 334 335 332 331 329 328 326 325 325 324 322 321 319 316 312 309
341 340 340 341 341 341 342 341 340 338 335 336 335 332 332 331 332 333 332 331 332 333 334 332 334 334 334 333 333 331 329 327 326 325 325 324 323 320 317 315 311 310 309
340 339 338 337 337 337 336 335 331 332 332 332 331 333 333 333 333 334 334 332 332 333 334 334 335 335 334 332 330 328 327 325 325 324 323 321 319 318 315 311 310 310 308
339 339 339 338 337 336 336 337 336 334 332 334 335 336 336 336 335 335 334 335 335 334 333 333 332 331 330 329 327 325 324 323 322 321 320 318 317 314 311 310 310 309 308
336 336 335 335 335 335 335 334 334 333 334 336 337 334 335 335 334 334 333 332 331 330 329 328 327 326 324 322 321 320 319 319 319 318 317 315 313 311 310 310 309 308 307
332 333 333 334 333 333 334 333 332 332 334 334 333 333 331 331 329 329 328 327 326 325 324 323 323 322 321 320 318 317 315 312 313 313 313 312 312 311 309 309 308 308 306
325 325 327 327 326 326 326 326 327 327 327 327 326 328 328 328 328 328 326 324 323 323 322 322 322 321 320 319 318 316 314 312 309 307 310 310 310 309 308 308 307 306 305

GFSGL_850_thetae_045.txt.gz
Theta_e
346 341 342 343 344 345 346 348 347 350 354 349 354 354 354 352 351 351 350 352 351 337 339 340 330 327 340 339 340 339 338 337 336 336 338 337 336 330 336 335 332 337 337
349 343 339 338 341 343 343 346 346 345 346 347 347 353 350 350 351 351 349 349 352 344 329 328 327 327 326 336 340 339 338 337 337 335 337 339 338 338 331 340 338 336 336
359 358 352 342 340 338 340 341 343 343 345 345 346 347 347 347 343 346 343 335 345 345 334 330 326 328 327 328 329 339 339 338 339 338 337 338 339 339 340 339 339 337 334
359 360 359 356 342 339 338 337 339 341 342 343 345 345 346 346 345 339 338 332 332 340 342 340 338 335 327 323 326 329 337 339 340 340 338 336 339 339 339 339 340 338 338
355 358 358 358 355 352 344 338 337 338 339 340 342 345 346 346 350 346 340 338 333 336 346 346 347 342 332 327 324 325 326 335 337 339 339 338 336 337 339 339 338 337 337
353 355 357 358 358 356 352 345 342 339 340 340 341 343 345 351 355 351 348 345 347 344 340 340 344 346 338 331 326 329 334 335 333 336 337 338 338 337 337 338 337 337 335
352 355 356 357 356 355 354 353 345 342 346 344 345 345 345 344 345 349 349 347 346 351 351 352 343 350 348 342 334 331 339 339 339 339 334 336 338 338 337 338 339 338 337
353 352 357 357 357 355 353 352 356 357 354 353 352 350 348 346 346 346 347 349 348 347 350 347 346 348 351 346 339 338 340 342 342 339 338 335 334 336 340 340 337 337 336
351 352 349 359 357 357 352 358 359 355 357 358 355 354 348 346 351 348 349 352 351 348 347 345 344 347 348 348 344 342 341 342 343 343 341 337 338 340 338 336 338 337 336
341 348 354 357 358 355 354 350 351 351 350 359 359 354 349 349 351 353 355 353 352 349 347 347 350 354 353 351 349 344 344 344 346 345 343 341 338 336 334 336 335 336 334
353 355 356 356 358 355 352 352 352 354 360 359 359 359 359 358 356 351 354 345 338 341 346 345 350 353 354 352 352 351 347 348 346 346 345 342 340 339 335 334 331 332 333
347 353 356 357 356 360 356 355 357 356 357 357 359 360 361 360 359 354 343 341 339 341 344 344 350 351 353 354 353 352 352 349 345 344 343 340 340 340 335 332 333 332 329
348 352 356 358 356 358 359 359 362 360 361 361 361 361 360 360 359 358 353 351 347 351 351 355 354 354 354 354 355 354 352 349 344 340 338 334 337 337 334 333 332 331 328
352 354 358 359 358 357 362 363 362 361 361 360 360 359 360 359 357 359 358 355 351 352 349 353 352 350 347 344 349 351 349 342 336 338 339 336 333 336 334 333 332 330 325
357 359 359 361 361 362 361 362 361 361 361 361 360 360 359 358 357 356 355 353 353 349 341 338 340 340 340 350 352 351 346 339 337 334 338 336 336 335 333 332 331 326 322
358 358 359 360 362 362 361 360 361 361 360 359 357 356 357 359 358 358 359 360 359 360 357 355 355 350 350 349 349 347 345 337 336 338 339 335 334 333 332 329 325 322 323
360 358 359 359 361 361 363 360 359 359 359 359 357 357 358 359 358 354 354 356 355 354 357 356 350 341 341 344 345 341 340 336 336 337 334 333 333 330 330 325 324 323 322
358 358 357 357 357 357 357 354 355 355 354 351 350 351 351 349 346 345 341 338 344 346 343 341 339 337 335 335 335 336 336 336 335 335 333 333 331 329 325 325 325 323 322
353 354 354 355 354 353 351 349 347 346 344 341 340 336 334 335 334 332 334 337 337 339 338 335 334 334 333 332 331 331 332 333 336 334 333 331 329 328 326 325 324 323 322
344 344 347 347 346 347 346 345 343 344 343 342 341 341 339 334 332 333 335 335 335 334 336 335 334 333 334 332 334 334 333 334 334 333 331 330 328 328 326 325 323 322 319
343 344 344 344 344 344 344 344 343 342 343 341 340 338 335 336 336 335 332 332 332 330 332 333 333 332 332 333 333 333 333 332 332 331 329 328 327 326 325 324 322 319 316
342 342 342 341 341 340 340 338 338 337 337 334 334 332 332 332 334 333 334 332 332 333 335 334 333 333 334 334 334 332 332 331 330 329 327 327 326 325 324 321 319 316 313
340 340 340 339 339 339 339 338 336 337 337 336 335 334 335 334 335 334 335 335 335 334 334 334 334 335 334 333 332 331 330 329 329 328 326 326 325 323 321 319 315 313 312
337 337 336 336 336 336 336 337 335 335 335 336 336 337 337 337 336 336 337 336 335 334 332 332 332 332 332 332 331 330 328 326 326 326 325 323 322 321 319 316 313 312 312
332 332 332 333 334 334 334 333 335 334 335 336 334 333 333 332 333 333 334 333 333 333 333 332 331 330 329 327 325 324 323 323 322 322 322 321 320 318 315 314 313 312 311
325 325 325 325 326 327 327 330 330 330 329 330 331 331 331 331 329 329 329 328 328 327 326 326 325 325 324 322 321 320 319 317 315 316 317 317 316 315 314 313 312 311 311

GFSGL_850_thetae_048.txt.gz
Theta_e
349 344 341 339 339 341 340 339 344 347 356 351 356 353 351 350 343 348 350 350 346 347 345 338 331 330 332 340 340 339 339 337 337 336 339 338 337 336 335 336 336 334 329
349 350 347 345 343 342 343 343 343 345 346 351 349 356 354 352 347 344 345 348 352 349 347 345 341 333 329 333 340 339 338 338 337 336 336 339 339 338 338 332 328 333 339
359 357 354 351 348 346 342 342 345 344 345 345 349 350 354 351 348 344 339 341 344 354 353 346 340 333 328 327 330 338 340 338 338 337 336 336 337 339 339 338 335 332 331
357 361 361 358 354 351 347 344 341 343 342 344 344 346 350 349 347 346 345 339 338 342 353 346 339 335 330 326 325 326 333 340 337 337 335 333 338 339 339 339 338 338 338
356 358 360 359 357 357 355 351 349 343 342 340 341 343 344 348 347 346 346 346 343 339 338 346 342 332 332 333 331 327 325 331 340 338 338 338 336 338 339 338 339 337 335
356 357 358 358 359 359 358 355 355 349 346 345 341 340 342 343 344 344 345 345 346 345 337 333 332 334 335 338 340 337 332 326 326 335 339 338 338 337 337 338 339 339 338
354 356 358 358 359 359 358 358 357 354 351 349 345 340 339 338 340 341 343 346 348 348 346 341 337 334 333 337 340 338 338 335 327 330 331 336 338 338 339 337 338 338 337
353 355 356 360 360 360 359 359 359 357 355 353 346 341 338 337 338 339 341 346 351 350 349 348 346 343 351 346 338 341 339 339 337 332 337 337 336 339 338 338 338 337 338
353 351 354 356 359 360 360 358 358 359 358 355 352 347 342 339 340 341 343 347 351 348 348 350 351 351 349 351 353 349 347 342 342 338 337 339 339 336 334 337 337 337 337
348 346 349 355 358 359 360 359 358 358 356 357 356 353 351 349 348 350 357 355 352 348 350 339 344 348 351 353 354 351 351 346 346 343 341 339 339 341 341 337 340 338 336
338 343 346 346 349 359 361 361 360 361 361 357 354 354 355 353 353 356 359 361 356 351 344 343 344 345 354 355 355 356 350 351 350 349 345 343 341 341 340 336 339 336 335
344 344 347 349 349 355 362 362 362 363 363 363 361 358 360 361 361 362 363 364 361 361 357 355 352 353 356 356 355 356 356 354 353 352 349 346 343 339 339 335 337 338 336
340 350 349 351 354 356 363 363 364 364 363 363 362 363 362 363 364 362 361 360 362 362 359 357 355 357 356 356 357 356 356 355 353 351 345 342 336 333 332 336 336 335 334
343 354 352 355 358 359 362 365 363 363 363 363 364 362 364 364 359 362 362 360 360 360 360 357 355 354 353 354 355 354 355 354 350 351 348 339 334 334 334 337 337 336 333
360 357 356 358 361 361 360 367 364 365 365 364 361 364 361 362 363 361 361 361 361 358 357 356 354 353 352 352 351 350 351 351 348 349 348 341 337 334 337 339 334 334 331
358 362 359 361 363 363 363 363 364 365 364 362 363 362 362 361 360 360 359 358 357 358 358 355 357 356 355 355 353 350 346 345 347 346 343 338 337 340 339 334 334 332 332
361 360 360 360 363 363 364 361 360 361 361 361 360 359 359 359 358 357 357 359 359 356 354 356 355 353 351 350 345 344 344 345 343 340 338 339 340 339 334 333 332 332 327
360 362 359 358 364 362 364 361 360 360 360 359 359 358 357 356 355 356 356 354 349 346 345 347 345 344 342 339 338 338 339 339 339 340 338 336 337 334 334 332 331 327 323
362 360 360 360 361 361 362 359 357 358 356 353 349 351 351 348 341 336 334 334 335 336 337 337 337 336 335 335 336 334 333 335 335 334 337 337 332 332 331 331 327 324 324
357 357 356 355 355 355 351 350 349 347 345 342 342 342 339 338 338 337 335 333 333 333 336 336 336 335 334 333 332 332 332 333 335 336 336 334 332 331 330 327 326 325 323
349 352 351 350 349 348 347 346 346 345 344 344 343 342 341 337 338 336 333 333 334 333 333 334 335 334 332 332 333 332 333 332 332 334 334 332 331 329 328 326 325 325 323
345 345 346 346 346 345 345 344 343 342 341 340 337 335 337 336 336 335 334 334 333 334 334 338 334 332 332 333 332 332 332 333 334 333 333 330 329 329 328 327 325 323 321
343 342 342 342 341 339 338 338 338 338 338 337 335 334 334 336 336 336 335 334 334 334 335 334 334 333 333 334 334 333 332 333 333 333 331 330 328 328 327 325 322 321 319
339 339 339 339 338 338 337 337 336 337 337 337 337 337 337 337 337 336 336 336 335 336 333 333 334 334 334 333 333 332 331 330 330 330 328 328 328 327 325 323 321 319 316
334 332 334 334 334 333 335 335 336 336 336 335 335 333 334 334 335 335 335 337 334 334 332 331 330 331 331 331 330 330 330 330 329 328 328 326 326 324 323 322 320 318 313
326 326 328 329 330 329 328 330 331 330 331 332 331 332 331 330 330 330 330 330 330 330 329 329 330 331 329 329 329 328 326 326 325 325 325 325 323 322 321 320 317 315 313